sat.trackr.live / text

‹ back to catalog

EUTELSAT 115 WEST B

NORAD 40425 · 2015-010B

PAYLOAD ACTIVE UNKNOWN

§ Identity

Operator
Country
EUTE
Launch date
2015-03-02
Launch site
AFETR
Launch vehicle
Mass (kg)
RCS (m²)
5.48

Purposes: comms

External: N2YO · Heavens-Above · Gunter

§ Orbital elements

Epoch: 2026-09-20T03:52:57.297792Z

Period
1,436.10 min
Inclination
0.0428°
Eccentricity
0.0000097
Mean motion
1.00271634 rev/d
Perigee alt
35,786.2 km
Apogee alt
35,787.0 km
Semi-major
42,164.8 km
B*
0.0000e+0
RAAN
355.6316°
Arg perigee
270.3846°
Mean anomaly
36.3865°
Rev number
4,233

§ Raw data

EUTELSAT 115 WEST B1 40425U 15010B   26263.16177428 -.00000029  00000+0  00000+0 0  99972 40425   0.0428 355.6316 0000097 270.3846  36.3865  1.00271634 42333

JSON: /api/v1/satellites/40425 · /tle

For live sub-satellite position, see the globe view (requires WebGL).

§ Visibility from observer

Set your observer location to see the next 7 days of passes ≥ 10°. The values pass through the URL so the page stays shareable.

No JS? Fill the form by hand. The geolocation button needs JavaScript.